Location: Asheville, NC
(35.6000°N, 82.5500°W)
Time: 08:22:34
(UTC-05:00)

Envisat - Pass Details

Date: 16 October 2017
Orbit: 764 x 766 km, 98.2° (Epoch: 23 January)

Event Time Altitude Azimuth Distance (km) Brightness Sun altitude
Exits shadow 20:46:16 22° 22° (NNE) 1,636 4.5 -23.8°
Drops below altitude 10° 20:48:19 10° 7° (N) 2,304 5.5 -24.2°
Sets 20:50:47 0° 358° (N) 3,234 6.3 -24.7°
